Station: Lady Elliot Island  

  Atmospheric Gas Attenuation - ITU Rec 676-11   ----------------- dB/100km -----------------
Date Time Temp RH % AH g/m3 Dew Point Wind Direction Speed kph Gust kph Barometer mB Rainfall Since 9am 24GHz 47GHz 76GHz 122GHz 134GHz 241GHz
31/08 23:10 20.6 69 12.35 14.7 28 41 1027.7 0 27.1 30.5 52.0 136.8 139.9 484.4
31/08 23:00 20.6 72 12.89 15.4 28 39 1027.8 0 28.3 31.4 54.2 142.9 147.4 510.6
31/08 22:50 20.3 68 11.96 14.2 28 35 1027.8 0 26.3 29.9 50.5 133.0 135.1 467.6
31/08 22:40 20.4 67 11.85 14.1 32 39 1027.8 0 26.1 29.7 50.0 131.6 133.5 461.8
31/08 22:30 20.5 69 12.28 14.6 30 39 1027.8 0 27.0 30.4 51.7 136.2 139.2 481.7
31/08 22:20 20.3 69 12.13 14.4 30 35 1027.9 0 26.7 30.2 51.2 134.9 137.5 475.8
31/08 22:10 20.4 67 11.85 14.1 30 39 1027.9 0 26.1 29.7 50.0 131.6 133.5 461.8
31/08 22:00 20.7 67 12.06 14.4 32 39 1027.9 0 26.5 30.0 50.7 133.4 135.8 470.0
31/08 21:50 20.8 70 12.67 15.1 30 37 1027.9 0 27.8 31.0 53.2 140.0 144.0 498.7
31/08 21:40 20.6 68 12.17 14.5 30 39 1027.9 0 26.8 30.2 51.2 134.8 137.5 475.9
31/08 21:30 20.4 69 12.21 14.5 30 39 1027.8 0 26.9 30.3 51.5 135.6 138.4 479.0
31/08 21:20 20.2 71 12.41 14.8 28 35 1027.8 0 27.3 30.7 52.5 138.2 141.5 489.9
31/08 21:10 20.3 70 12.31 14.7 30 39 1027.8 0 27.1 30.5 52.0 136.9 139.9 484.4
31/08 21:00 20.2 68 11.89 14.1 32 41 1027.8 0 26.2 29.9 50.3 132.3 134.3 464.9
31/08 20:50 20.2 70 12.24 14.6 32 41 1027.7 0 26.9 30.4 51.8 136.2 139.1 481.6
31/08 20:40 20.3 72 12.66 15.1 32 41 1027.6 0 27.8 31.1 53.5 140.8 144.8 501.3
31/08 20:30 20.3 72 12.66 15.1 32 39 1027.7 0 27.8 31.1 53.5 140.8 144.8 501.3
31/08 20:20 20.3 70 12.31 14.7 32 41 1027.7 0 27.1 30.5 52.0 136.8 139.9 484.4
31/08 20:10 20.4 71 12.56 15 30 41 1027.7 0 27.6 30.9 53.0 139.5 143.2 495.8
31/08 20:00 20.4 72 12.74 15.2 28 39 1027.7 0 28.0 31.2 53.7 141.5 145.7 504.6
31/08 19:50 20.3 71 12.49 14.9 28 35 1027.7 0 27.5 30.8 52.7 138.9 142.4 493.1
31/08 19:40 20.3 70 12.31 14.7 28 39 1027.6 0 27.1 30.5 52.0 136.8 139.9 484.3
31/08 19:30 20.3 69 12.13 14.4 28 37 1027.6 0 26.7 30.2 51.2 134.8 137.4 475.7
31/08 19:20 20.3 68 11.96 14.2 28 39 1027.6 0 26.3 29.9 50.5 132.9 135.1 467.6
31/08 19:10 20.4 71 12.56 15 28 37 1027.6 0 27.6 30.9 53.0 139.5 143.2 495.8
31/08 19:00 20.3 71 12.49 14.9 28 35 1027.5 0 27.5 30.8 52.7 138.8 142.4 493.0
31/08 18:50 20.3 72 12.66 15.1 24 32 1027.5 0 27.8 31.1 53.5 140.8 144.8 501.3
31/08 18:40 20.1 71 12.34 14.7 24 32 1027.5 0 27.2 30.6 52.2 137.5 140.7 487.0
31/08 18:30 20.1 70 12.17 14.5 24 33 1027.4 0 26.8 30.3 51.5 135.6 138.3 478.8
31/08 18:20 20.1 69 11.99 14.2 26 33 1027.3 0 26.4 30.0 50.8 133.6 135.8 470.1
31/08 18:10 20.1 70 12.17 14.5 24 32 1027.1 0 26.8 30.3 51.5 135.6 138.3 478.7
31/08 18:00 20.2 68 11.89 14.1 26 33 1027 0 26.2 29.8 50.3 132.3 134.3 464.6
31/08 17:50 20 67 11.58 13.7 26 33 1026.8 0 25.6 29.4 49.1 129.1 130.4 451.0
31/08 17:40 20.1 70 12.17 14.5 28 35 1026.7 0 26.8 30.3 51.5 135.5 138.2 478.5
31/08 17:30 20.1 69 11.99 14.2 28 33 1026.7 0 26.4 30.0 50.7 133.5 135.8 469.9
31/08 17:20 20.3 70 12.31 14.7 26 33 1026.6 0 27.1 30.5 51.9 136.7 139.8 484.0
31/08 17:10 20.4 68 12.03 14.3 28 37 1026.5 0 26.5 30.0 50.7 133.4 135.8 469.9
31/08 17:00 20.5 65 11.56 13.7 28 39 1026.4 0 25.5 29.2 48.7 128.1 129.2 447.1
31/08 16:50 20.9 67 12.2 14.5 28 33 1026.3 0 26.8 30.1 51.1 134.4 137.2 474.9
31/08 16:40 21.1 65 11.98 14.3 28 35 1026.3 0 26.3 29.6 50.0 131.6 133.9 463.3
31/08 16:30 21.1 65 11.98 14.3 28 35 1026.2 0 26.3 29.6 50.0 131.6 133.8 463.3
31/08 16:20 21.1 68 12.53 15 30 39 1026.2 0 27.5 30.6 52.3 137.7 141.3 489.4
31/08 16:10 21 66 12.09 14.4 28 37 1026.2 0 26.6 29.9 50.5 133.0 135.5 469.0
31/08 16:00 21.3 67 12.49 14.9 28 37 1026 0 27.4 30.4 52.0 136.9 140.4 486.2
31/08 15:50 21.4 68 12.75 15.3 30 37 1025.9 0 27.9 30.8 53.0 139.6 143.8 497.9
31/08 15:40 21.5 67 12.63 15.1 28 39 1025.9 0 27.7 30.6 52.4 138.1 141.9 491.6
31/08 15:30 21.8 64 12.28 14.7 26 35 1025.9 0 26.9 29.9 50.8 133.7 136.6 473.1
31/08 15:20 21.7 62 11.83 14.1 26 37 1026 0 26.0 29.2 49.0 129.0 130.8 452.7
31/08 15:10 21.9 67 12.93 15.5 26 33 1026 0 28.3 30.9 53.4 140.7 145.3 503.4
31/08 15:00 21.1 66 12.16 14.5 24 33 1026.1 0 26.7 29.9 50.8 133.6 136.3 471.7
31/08 14:50 21.5 65 12.26 14.6 28 35 1026.2 0 26.9 30.0 50.9 134.0 136.9 474.1
31/08 14:40 22.2 63 12.37 14.8 28 35 1026.1 0 27.1 29.9 50.9 134.0 137.2 475.0
31/08 14:30 22.1 64 12.49 15 26 33 1026.2 0 27.3 30.2 51.5 135.5 139.0 481.3
31/08 14:20 22 62 12.03 14.4 26 33 1026.2 0 26.4 29.4 49.7 130.7 133.0 460.3
31/08 14:10 21.5 67 12.63 15.1 24 32 1026.3 0 27.7 30.6 52.5 138.1 142.0 491.7
31/08 14:00 21 65 11.91 14.2 24 32 1026.4 0 26.2 29.6 49.8 131.1 133.1 460.6
31/08 13:50 20.9 66 12.02 14.3 28 37 1026.4 0 26.4 29.8 50.3 132.4 134.8 466.4
31/08 13:40 20.9 70 12.75 15.2 32 41 1026.6 0 28.0 31.0 53.4 140.6 144.8 501.4
31/08 13:30 20.6 71 12.71 15.2 32 41 1026.7 0 27.9 31.1 53.4 140.7 144.8 501.5
31/08 13:20 21.1 72 13.26 15.9 28 37 1026.7 0 29.0 31.8 55.4 146.0 151.5 525.0
31/08 13:10 21.3 68 12.67 15.2 22 35 1026.7 0 27.8 30.7 52.8 139.0 142.9 495.0
31/08 13:00 20.5 74 13.17 15.7 30 39 1026.8 0 28.9 31.9 55.5 146.1 151.5 524.7
31/08 12:50 20.8 73 13.22 15.8 22 30 1026.8 0 29.0 31.9 55.5 146.1 151.6 525.1
31/08 12:40 20.9 70 12.75 15.2 20 33 1026.9 0 28.0 31.0 53.4 140.6 144.8 501.5
31/08 12:30 21.7 68 12.97 15.5 17 22 1027 0 28.4 31.1 53.8 141.7 146.4 507.0
31/08 12:20 21.3 67 12.49 14.9 22 30 1027.1 0 27.4 30.5 52.0 137.0 140.5 486.6
31/08 12:10 21.2 69 12.79 15.3 26 35 1027.2 0 28.0 31.0 53.4 140.6 144.8 501.6
31/08 12:00 21.5 68 12.82 15.3 30 39 1027.2 0 28.1 31.0 53.3 140.4 144.7 501.2
31/08 11:50 21.8 66 12.66 15.2 24 33 1027.2 0 27.7 30.6 52.4 138.1 141.9 491.6
31/08 11:40 21 69 12.64 15.1 22 30 1027.2 0 27.7 30.8 52.9 139.3 143.1 495.7
31/08 11:30 21.9 64 12.35 14.8 24 32 1027.3 0 27.1 30.0 51.1 134.5 137.5 476.3
31/08 11:20 23.5 55 11.63 13.9 26 33 1027.3 0 25.4 28.3 47.2 124.1 125.3 433.8
31/08 11:10 23.1 57 11.78 14.1 24 32 1027.5 0 25.8 28.7 48.0 126.4 128.0 442.9
31/08 11:00 23 56 11.51 13.8 26 32 1027.7 0 25.2 28.3 47.0 123.7 124.6 431.3
31/08 10:50 23 56 11.51 13.8 26 35 1027.8 0 25.2 28.3 47.0 123.7 124.6 431.3
31/08 10:40 22.6 61 12.25 14.7 26 35 1027.8 0 26.8 29.6 50.2 132.3 135.0 467.6
31/08 10:30 22 59 11.45 13.6 28 37 1028 0 25.2 28.5 47.4 124.7 125.5 434.1
31/08 10:20 21.8 60 11.51 13.7 28 35 1028.1 0 25.3 28.7 47.8 125.6 126.6 438.0
31/08 10:10 22.6 64 12.86 15.4 28 33 1028 0 28.1 30.7 52.8 139.0 143.3 496.3
31/08 10:00 21.6 67 12.71 15.2 30 37 1028 0 27.8 30.8 52.8 139.1 143.1 495.5
31/08 09:50 22.5 67 13.38 16.1 30 39 1028.1 0 29.2 31.6 55.0 144.9 150.6 521.9
31/08 09:40 21.5 67 12.63 15.1 30 35 1028.1 0 27.7 30.7 52.5 138.4 142.2 492.4
31/08 09:30 22.4 65 12.91 15.5 28 35 1028 0 28.2 30.8 53.1 139.9 144.3 500.0
31/08 09:20 22.3 62 12.24 14.7 28 37 1027.9 0 26.8 29.7 50.4 132.7 135.4 468.9
31/08 09:10 21.3 64 11.93 14.2 28 35 1028 0 26.2 29.6 49.8 131.0 133.0 460.4
31/08 09:00 21 70 12.82 15.3 30 39 1028 0 28.1 31.2 53.7 141.4 145.7 504.7
31/08 08:50 21.2 66 12.23 14.6 28 35 1028 0.4 26.9 30.1 51.1 134.4 137.2 475.1
31/08 08:40 21.2 66 12.23 14.6 28 35 1027.9 0.4 26.9 30.1 51.1 134.4 137.2 475.1
31/08 08:30 21.1 69 12.71 15.2 32 39 1027.9 0.4 27.9 30.9 53.1 139.9 144.0 498.7
31/08 08:20 20.8 66 11.95 14.2 33 43 1027.8 0.4 26.3 29.8 50.2 132.0 134.1 464.2
31/08 08:10 20.8 70 12.67 15.1 30 41 1027.6 0.4 27.8 31.0 53.2 140.0 144.0 498.6
31/08 08:00 20.7 68 12.24 14.6 28 35 1027.5 0.4 26.9 30.3 51.4 135.3 138.2 478.5
31/08 07:50 21 67 12.27 14.6 28 35 1027.4 0.4 27.0 30.2 51.3 135.1 138.1 478.0
31/08 07:40 21.5 65 12.26 14.6 28 35 1027.2 0.4 26.9 30.0 51.0 134.2 137.0 474.4
31/08 07:30 21.3 65 12.11 14.5 26 35 1027.1 0.4 26.6 29.8 50.5 132.8 135.3 468.5
31/08 07:20 20.5 68 12.1 14.4 28 33 1027 0.4 26.6 30.1 50.9 134.1 136.6 472.8
31/08 07:10 20.2 67 11.71 13.9 30 37 1027 0.4 25.8 29.5 49.5 130.3 131.8 456.1
31/08 07:00 20.5 65 11.56 13.7 26 35 1026.9 0.4 25.5 29.2 48.7 128.1 129.3 447.2
31/08 06:50 20.4 67 11.85 14.1 28 35 1026.8 0.4 26.1 29.7 50.0 131.5 133.4 461.5
31/08 06:40 20.3 70 12.31 14.7 26 32 1026.8 0.4 27.1 30.5 51.9 136.7 139.8 484.0

Last Refresh: 31-Aug-2026 22:52:07

Bureau of Meteorology